Location: *
(40.9167°N, 9.5000°E)
Time: 02:18:27
(UTC+00:00)

MOS 1 - Pass Details

Date: 09 April 2020
Orbit: 879 x 891 km, 99.2° (Epoch: 05 June)

Event Time Altitude Azimuth Distance (km) Brightness Sun altitude
Exits shadow 19:09:48 - 169° (SSE) 3,362 7.0 -14.1°
Reaches altitude 10° 19:11:56 10° 170° (S) 2,530 6.4 -14.5°
Maximum altitude 19:17:33 76° 256° (WSW) 911 4.4 -15.5°
Drops below altitude 10° 19:23:15 10° 343° (NNW) 2,554 7.3 -16.4°
Sets 19:25:40 0° 345° (NNW) 3,499 8.1 -16.8°
